Change the Weather History Date:

Thursday, January 10, 2013

  Actual Average Record
Temperature  
Mean Temperature 65 °F -  
Max Temperature 66 °F - 76 °F (1974)
Min Temperature 63 °F - 5 °F (1970)
Degree Days  
Heating Degree Days 0    
Month to date heating degree days 147  
Since 1 July heating degree days 821  
Growing Degree Days 14 (Base 50)    
Moisture  
Dew Point 60 °F    
Average Humidity 87    
Maximum Humidity 94    
Minimum Humidity 77    
Precipitation  
Precipitation 0.00 in - 2.10 in (2000)
Month to date precipitation 0.38  
Year to date precipitation 0.38  
Sea Level Pressure  
Sea Level Pressure 30.27 in    
Wind  
Wind Speed 7 mph (ESE)    
Max Wind Speed 15 mph    
Max Gust Speed 22 mph    
Visibility 7 miles    
Events      
T = Trace of Precipitation, MM = Missing Value Source: NWS Daily Summary

Daily Weather History Graph

Daily Weather History Graph

Search for Another Location

Airport or City:

Trip Planner

Search our weather history database for the weather conditions in past years. The results will help you decide how hot, cold, wet, or windy it might be!

Date:

Astronomy

Jan. 10, 2013 Rise Set
Actual Time 6:44 AM CST 4:54 PM CST
Civil Twilight 6:17 AM CST 5:21 PM CST
Nautical Twilight 5:47 AM CST 5:51 PM CST
Astronomical Twilight 5:17 AM CST 6:21 PM CST
Moon 5:23 AM CST (1/10) 4:00 PM CST (1/10)
Length of Visible Light 11h 03m
Length of Day
10h 10m
Waning Crescent, 2% of the Moon is Illuminated
Jan 10
Waning Crescent
Jan 11
New
Jan 18
First Quarter
Jan 26
Full
Feb 3
Last Quarter

Hourly Weather History & Observations

Time (CST) Temp. Dew Point Humidity Pressure Visibility Wind Dir Wind Speed Gust Speed Precip Events Conditions
12:15 AM 62.6 °F 55.4 °F 77% 30.33 in 10.0 mi East 9.2 mph - N/A   Overcast
12:35 AM 62.6 °F 57.2 °F 82% 30.33 in 10.0 mi East 9.2 mph - N/A   Overcast
12:55 AM 62.6 °F 57.2 °F 82% 30.33 in 10.0 mi East 6.9 mph - N/A   Overcast
1:15 AM 62.6 °F 57.2 °F 82% 30.34 in 10.0 mi ESE 9.2 mph - N/A   Overcast
1:35 AM 62.6 °F 57.2 °F 82% 30.34 in 10.0 mi East 6.9 mph - N/A   Overcast
1:55 AM 62.6 °F 57.2 °F 82% 30.33 in 10.0 mi East 10.4 mph - N/A   Overcast
2:15 AM 62.6 °F 57.2 °F 82% 30.33 in 10.0 mi East 8.1 mph - N/A   Overcast
2:35 AM 62.6 °F 57.2 °F 82% 30.33 in 8.0 mi East 8.1 mph - N/A   Overcast
2:55 AM 62.6 °F 57.2 °F 82% 30.33 in 7.0 mi East 6.9 mph - N/A   Overcast
3:15 AM 62.6 °F 57.2 °F 82% 30.32 in 5.0 mi East 9.2 mph - N/A   Overcast
3:35 AM 62.6 °F 57.2 °F 82% 30.31 in 5.0 mi East 8.1 mph - N/A   Overcast
3:55 AM 62.6 °F 59.0 °F 88% 30.30 in 5.0 mi Calm Calm - N/A   Overcast
4:15 AM 62.6 °F 59.0 °F 88% 30.30 in 4.0 mi ESE 8.1 mph - N/A   Overcast
4:35 AM 62.6 °F 59.0 °F 88% 30.30 in 1.5 mi ESE 5.8 mph - N/A   Overcast
4:55 AM 62.6 °F 59.0 °F 88% 30.30 in 1.0 mi East 6.9 mph - N/A   Overcast
5:15 AM 62.6 °F 59.0 °F 88% 30.30 in 0.8 mi ESE 6.9 mph - N/A   Overcast
5:35 AM 62.6 °F 59.0 °F 88% 30.30 in 1.2 mi ESE 6.9 mph - N/A   Overcast
5:55 AM 62.6 °F 59.0 °F 88% 30.30 in 1.8 mi East 6.9 mph - N/A   Overcast
6:35 AM 62.6 °F 59.0 °F 88% 30.30 in 1.8 mi ESE 6.9 mph - N/A   Overcast
6:55 AM 62.6 °F 60.8 °F 94% 30.30 in 1.0 mi ESE 9.2 mph - N/A   Overcast
7:15 AM 62.6 °F 60.8 °F 94% 30.31 in 0.5 mi ESE 8.1 mph - N/A   Overcast
7:55 AM 62.6 °F 60.8 °F 94% 30.31 in 0.8 mi ESE 8.1 mph - N/A   Overcast
8:35 AM 62.6 °F 60.8 °F 94% 30.32 in 0.8 mi ESE 9.2 mph - N/A   Overcast
8:55 AM 62.6 °F 60.8 °F 94% 30.33 in 1.2 mi ESE 8.1 mph - N/A   Overcast
9:15 AM 62.6 °F 60.8 °F 94% 30.32 in 3.0 mi ESE 6.9 mph 16.1 mph N/A   Overcast
9:35 AM 64.4 °F 60.8 °F 88% 30.32 in 7.0 mi ESE 10.4 mph - N/A   Overcast
9:55 AM 64.4 °F 60.8 °F 88% 30.32 in 10.0 mi ESE 9.2 mph - N/A   Overcast
10:15 AM 66.2 °F 60.8 °F 83% 30.31 in 10.0 mi ESE 4.6 mph - N/A   Overcast
10:35 AM 66.2 °F 60.8 °F 83% 30.31 in 10.0 mi Calm Calm - N/A   Overcast
10:55 AM 66.2 °F 60.8 °F 83% 30.31 in 10.0 mi Calm Calm - N/A   Overcast
11:15 AM 64.4 °F 60.8 °F 88% 30.31 in 5.0 mi Calm Calm - N/A   Overcast
11:35 AM 64.4 °F 60.8 °F 88% 30.30 in 5.0 mi Calm Calm - N/A   Overcast
11:55 AM 66.2 °F 60.8 °F 83% 30.29 in 10.0 mi Calm Calm - N/A   Overcast
12:15 PM 66.2 °F 60.8 °F 83% 30.28 in 8.0 mi Calm Calm - N/A   Overcast
12:35 PM 66.2 °F 60.8 °F 83% 30.27 in 10.0 mi Calm Calm - N/A   Overcast
12:55 PM 66.2 °F 60.8 °F 83% 30.26 in 6.0 mi Calm Calm - N/A   Overcast
1:15 PM 64.4 °F 60.8 °F 88% 30.26 in 5.0 mi Calm Calm - N/A   Overcast
1:35 PM 64.4 °F 60.8 °F 88% 30.26 in 2.5 mi Calm Calm - N/A   Overcast
1:55 PM 64.4 °F 62.6 °F 94% 30.26 in 7.0 mi Calm Calm - N/A   Overcast
2:15 PM 64.4 °F 60.8 °F 88% 30.27 in 8.0 mi Calm Calm - N/A   Overcast
2:35 PM 66.2 °F 60.8 °F 83% 30.26 in 10.0 mi Calm Calm - N/A   Overcast
2:55 PM 66.2 °F 60.8 °F 83% 30.26 in 10.0 mi Calm Calm - N/A   Overcast
3:15 PM 64.4 °F 60.8 °F 88% 30.26 in 10.0 mi Calm Calm - N/A   Overcast
3:35 PM 64.4 °F 60.8 °F 88% 30.25 in 10.0 mi Calm Calm - N/A   Overcast
3:55 PM 64.4 °F 60.8 °F 88% 30.25 in 10.0 mi Calm Calm - N/A   Overcast
4:15 PM 64.4 °F 60.8 °F 88% 30.25 in 8.0 mi Calm Calm - N/A   Overcast
4:35 PM 64.4 °F 60.8 °F 88% 30.25 in 7.0 mi East 12.7 mph 18.4 mph N/A   Overcast
4:55 PM 64.4 °F 60.8 °F 88% 30.24 in 6.0 mi East 10.4 mph 19.6 mph N/A   Overcast
5:15 PM 64.4 °F 59.0 °F 83% 30.23 in 9.0 mi East 13.8 mph - N/A   Overcast
5:35 PM 62.6 °F 59.0 °F 88% 30.23 in 10.0 mi East 12.7 mph 18.4 mph N/A   Overcast
5:55 PM 62.6 °F 59.0 °F 88% 30.24 in 10.0 mi ESE 8.1 mph - N/A   Mostly Cloudy
6:15 PM 62.6 °F 59.0 °F 88% 30.23 in 10.0 mi ESE 9.2 mph - N/A   Overcast
6:35 PM 64.4 °F 59.0 °F 83% 30.23 in 10.0 mi ESE 8.1 mph - N/A   Overcast
6:55 PM 64.4 °F 59.0 °F 83% 30.24 in 10.0 mi ESE 9.2 mph - N/A   Overcast
7:15 PM 64.4 °F 59.0 °F 83% 30.23 in 10.0 mi ESE 11.5 mph 17.3 mph N/A   Overcast
7:35 PM 64.4 °F 60.8 °F 88% 30.24 in 10.0 mi ESE 9.2 mph 16.1 mph N/A   Overcast
7:55 PM 64.4 °F 60.8 °F 88% 30.24 in 10.0 mi ESE 9.2 mph - N/A   Overcast
8:15 PM 64.4 °F 60.8 °F 88% 30.24 in 10.0 mi SE 9.2 mph - N/A   Overcast
8:55 PM 64.4 °F 60.8 °F 88% 30.21 in 10.0 mi SE 11.5 mph 16.1 mph N/A   Overcast
9:15 PM 64.4 °F 60.8 °F 88% 30.20 in 10.0 mi ESE 9.2 mph 18.4 mph N/A   Overcast
9:35 PM 64.4 °F 60.8 °F 88% 30.20 in 10.0 mi ESE 9.2 mph 18.4 mph N/A   Overcast
9:55 PM 64.4 °F 60.8 °F 88% 30.20 in 10.0 mi SE 12.7 mph 17.3 mph N/A   Overcast
10:35 PM 64.4 °F 60.8 °F 88% 30.19 in 10.0 mi SE 11.5 mph 19.6 mph N/A   Overcast
10:55 PM 64.4 °F 60.8 °F 88% 30.19 in 10.0 mi SE 15.0 mph 21.9 mph N/A   Overcast
11:15 PM 64.4 °F 60.8 °F 88% 30.18 in 10.0 mi SE 15.0 mph 24.2 mph N/A   Overcast
11:55 PM 64.4 °F 60.8 °F 88% 30.15 in 10.0 mi SSE 13.8 mph 18.4 mph N/A   Overcast